"Pseudo-MPEC" for P1180zw

Created 2020 Oct 25 3:07:23 UT using Find_Orb

Click here for an explanation of pseudo-MPECs

 
 Astrometry: 
     P1180zw  C2020 10 15^C:7D/(]c)IKHx,+\sv(kD3gk(\ofu.djE.yMkb0ngXGs)Gnel8xF51
     P1180zw  C2020 10 15Y*b@2(tF,?T_FyVniio=-xUc0AstrometrymaCQW_rChh=4t6C3\F51
     P1180zw  C2020 10 15vi9jY(9Pi7nDXk;!redacted;Csaop)]click4=1J:Da74[G\uQKF51
     P1180zw KC2020 10 17.26614303 10 33.13 +20 50 41.0    ~AH6b 22.33GVNEOCPV06
     P1180zw KC2020 10 17.26852003 10 32.98 +20 50 40.6    ~AH6b 21.88GVNEOCPV06
     P1180zw KC2020 10 17.27089603 10 32.87 +20 50 40.1    ~AH6b 22.16GVNEOCPV06
     P1180zw  C2020 10 232EIgW:\X7/?,iherent4yY%gYah;6?@iCu^-u5'\;)K/#(lYaqu2F51
     P1180zw  C2020 10 23hjHa1%YHT^Na4dhpYLuCOUKAhfmh;%0,(K=for-*qU80*TDHvn'HF51
     P1180zw  C2020 10 23iJxyOsgpf01l@=explanationtF4'P,6C@w:Bs.JBQNtPXGN4N9ZF51
     P1180zw  C2020 10 23HWTnk5yQKBmF?-hlolhGAwSdo'xwtXQfnwUG(Zivb]IUS;w6:Qi$F51

Station data:
(F51) Pan-STARRS 1, Haleakala  (N20.707235 W156.255910)  US/Hawaii.
   Observers N. Primak, A. Schultz, S. Watters, J. Thiel, T. Goggia. Measurer
   PS1 Science Consortium. 1.8-m Ritchey-Chrétien + CCD.
(V06) Catalina Sky Survey-Kuiper  (N32.416847 W110.732550)  US/Arizona.
   Observers T. A. Pruyne, B. M. Africano, E. J. Christensen, G. A. Farneth,
   D. C. Fuls, A. R. Gibbs, A. D. Grauer, H. Gröller, J. A. Johnson, R. A.
   Kowalski, S. M. Larson, G. J. Leonard, D. Rankin, R. L. Seaman, F. C.
   Shelly. 1.55-m reflector + CCD.

Orbital elements:  P1180zw
   Perihelion 2020 Apr 1.236647 +/- 15.4 TT =  5:40:46 (JD 2458940.736647)
Epoch 2020 Oct 23.0 TT = JDT 2459145.5   Earth MOID: 0.6315   AutoNEOCP
M  60.52344910 +/- 6                (J2000 ecliptic)
n   0.29557754 +/- 0.011            Peri.    1.95781 +/- 2.2
a   2.23197036 +/- 0.0553           Node   307.98073 +/- 1.3
e   0.2623351 +/- 0.0309            Incl.    1.61795 +/- 0.024
P   3.33                   H 19.6   G  0.15   U  9.7  
q 1.64644598 +/- 0.03    Q 2.81749475 +/- 0.148
From 10 observations 2020 Oct. 15-23; mean residual 0".10
Residuals in arcseconds: 
201015 F51  .05-  .06+    201017 V06  .19-  .04+    201023 F51  .08+  .03+    
201015 F51  .09-  .07-    201017 V06  .25+  .03-    201023 F51  .00   .07-    
201015 F51  .15+  .01-    201023 F51  .12-  .10+    
201017 V06  .07-  .01+    201023 F51  .03+  .07-    

Ephemerides (geocentric):
Date (UTC) HH   RA              Dec         delta   r     elong  mag " sig PA
---- -- -- --  -------------   -----------  ------ ------ -----  --- ---- ---
2020 10 25 03  03 02 21.128   +20 21 14.06  1.1171 2.0875 162.7 22.0 .925 118
2020 10 25 04  03 02 18.336   +20 21 03.25  1.1171 2.0876 162.7 22.0 .964 118
2020 10 25 05  03 02 15.543   +20 20 52.43  1.1171 2.0878 162.8 22.0 1.01 117
2020 10 25 06  03 02 12.748   +20 20 41.60  1.1171 2.0879 162.9 22.0 1.05 116
2020 10 25 07  03 02 09.952   +20 20 30.75  1.1171 2.0880 162.9 22.0 1.09 115
2020 10 25 08  03 02 07.155   +20 20 19.88  1.1171 2.0882 163.0 22.0 1.13 114
2020 10 25 09  03 02 04.356   +20 20 09.01  1.1171 2.0883 163.0 22.0 1.17 114
2020 10 25 10  03 02 01.555   +20 19 58.12  1.1171 2.0884 163.1 22.0 1.22 113
2020 10 25 11  03 01 58.753   +20 19 47.21  1.1171 2.0885 163.1 22.0 1.26 112
2020 10 25 12  03 01 55.950   +20 19 36.30  1.1171 2.0887 163.2 22.0 1.31 112
2020 10 25 13  03 01 53.145   +20 19 25.37  1.1171 2.0888 163.2 22.0 1.36 111
2020 10 25 14  03 01 50.339   +20 19 14.42  1.1171 2.0889 163.3 22.0 1.40 111
2020 10 25 15  03 01 47.531   +20 19 03.46  1.1171 2.0891 163.3 22.0 1.45 110
2020 10 25 16  03 01 44.722   +20 18 52.49  1.1171 2.0892 163.4 22.0 1.50 110
2020 10 25 17  03 01 41.912   +20 18 41.51  1.1171 2.0893 163.4 22.0 1.55 109
2020 10 25 18  03 01 39.100   +20 18 30.51  1.1171 2.0895 163.5 22.0 1.60 109
2020 10 25 19  03 01 36.287   +20 18 19.50  1.1171 2.0896 163.5 22.0 1.65 108
2020 10 25 20  03 01 33.473   +20 18 08.47  1.1171 2.0897 163.6 22.0 1.70 108
2020 10 25 21  03 01 30.657   +20 17 57.44  1.1172 2.0899 163.6 22.0 1.75 107
2020 10 25 22  03 01 27.839   +20 17 46.38  1.1172 2.0900 163.7 22.0 1.80 107
2020 10 25 23  03 01 25.021   +20 17 35.32  1.1172 2.0901 163.7 22.0 1.86 107
2020 10 26 00  03 01 22.201   +20 17 24.24  1.1172 2.0902 163.8 22.0 1.91 106
2020 10 26 01  03 01 19.379   +20 17 13.15  1.1172 2.0904 163.8 22.0 1.96 106
2020 10 26 02  03 01 16.557   +20 17 02.04  1.1172 2.0905 163.9 22.0 2.02 105
2020 10 26 03  03 01 13.733   +20 16 50.93  1.1172 2.0906 163.9 22.0 2.07 105
2020 10 26 04  03 01 10.907   +20 16 39.79  1.1172 2.0908 164.0 22.0 2.13 105
2020 10 26 05  03 01 08.081   +20 16 28.65  1.1172 2.0909 164.0 22.0 2.19 105
2020 10 26 06  03 01 05.253   +20 16 17.49  1.1172 2.0910 164.1 22.0 2.25 104
2020 10 26 07  03 01 02.424   +20 16 06.32  1.1172 2.0912 164.2 22.0 2.30 104
2020 10 26 08  03 00 59.593   +20 15 55.14  1.1172 2.0913 164.2 22.0 2.36 104
2020 10 26 09  03 00 56.761   +20 15 43.94  1.1173 2.0914 164.3 22.0 2.42 103
2020 10 26 10  03 00 53.928   +20 15 32.73  1.1173 2.0915 164.3 22.0 2.48 103
2020 10 26 11  03 00 51.094   +20 15 21.51  1.1173 2.0917 164.4 22.0 2.55 103
2020 10 26 12  03 00 48.259   +20 15 10.27  1.1173 2.0918 164.4 22.0 2.61 103
2020 10 26 13  03 00 45.422   +20 14 59.03  1.1173 2.0919 164.5 22.0 2.67 102
2020 10 26 14  03 00 42.584   +20 14 47.76  1.1173 2.0921 164.5 22.0 2.73 102
2020 10 26 15  03 00 39.744   +20 14 36.49  1.1173 2.0922 164.6 22.0 2.80 102
2020 10 26 16  03 00 36.904   +20 14 25.20  1.1173 2.0923 164.6 22.0 2.86 102
2020 10 26 17  03 00 34.062   +20 14 13.90  1.1174 2.0925 164.7 22.0 2.93 101
2020 10 26 18  03 00 31.219   +20 14 02.59  1.1174 2.0926 164.7 22.0 3.00 101
2020 10 26 19  03 00 28.375   +20 13 51.26  1.1174 2.0927 164.8 22.0 3.06 101
2020 10 26 20  03 00 25.530   +20 13 39.92  1.1174 2.0929 164.8 22.0 3.13 101
2020 10 26 21  03 00 22.683   +20 13 28.57  1.1174 2.0930 164.9 22.0 3.20 101
2020 10 26 22  03 00 19.836   +20 13 17.21  1.1174 2.0931 164.9 22.0 3.27 100
2020 10 26 23  03 00 16.987   +20 13 05.83  1.1174 2.0932 165.0 22.0 3.34 100
2020 10 27 00  03 00 14.137   +20 12 54.44  1.1175 2.0934 165.0 22.0 3.41 100
2020 10 27 01  03 00 11.285   +20 12 43.04  1.1175 2.0935 165.1 22.0 3.48 100
2020 10 27 02  03 00 08.433   +20 12 31.62  1.1175 2.0936 165.1 22.0 3.55 100